[[{"header":{"parameterUnit":"m.s-1","parameterCategory":1,"la1":30.2991,"la2":30.254,"lo1":-89.0895,"lo2":-89.0444,"dy":0.0017,"dx":0.0017,"nx":28,"ny":28,"refTime":"2024-06-14T09:00:00:Z","depth":0,"parameterNumber":2,"parameterNumberName":"U-component_of_WINDS"},"data":[0,0,0,0,0,0,0,0,0,0,0,0,0,0,0,0,0,0,0,0,0,0,0,0,0,0,0,0,0,0,0,0,0,0,0,0,0,0,0,0,0,0,0,0,0,0,0,0,0,0,0,0,0,0,0,0,0,0,-1.4891,-1.4891,0,-1.4858,-1.4857,-1.4857,-1.4831,-1.4831,-1.4831,-1.4831,-1.4793,-1.4793,-1.4792,0,0,0,0,0,0,0,0,0,0,0,0,0,-1.493,-1.493,-1.4891,-1.4891,-1.489,-1.4858,-1.4857,-1.4857,-1.4831,-1.4831,-1.4831,-1.4831,-1.4794,-1.4793,-1.4792,0,0,0,0,0,0,0,0,0,0,0,0,0,-1.4907,-1.4929,-1.4891,-1.4874,-1.4872,-1.4858,-1.4857,-1.4857,-1.4831,-1.4831,-1.4831,-1.483,-1.4794,-1.4793,-1.4792,-1.4791,0,0,-1.4788,-1.4788,0,0,0,0,0,0,0,0,-1.4908,-1.4905,-1.4877,-1.4875,-1.4873,-1.4848,-1.4857,-1.4835,-1.4832,-1.4847,-1.4831,-1.483,-1.4812,-1.4809,-1.4804,-1.479,-1.4788,-1.4788,-1.4787,-1.4787,-1.4786,0,0,0,0,0,0,0,-1.491,-1.4907,-1.4878,-1.4876,-1.4874,-1.4867,-1.4863,-1.4853,-1.4831,-1.4845,-1.4843,-1.484,-1.4811,-1.4805,-1.4802,-1.4787,-1.4788,-1.4787,-1.4786,-1.4786,-1.4772,-1.4772,0,0,0,0,0,0,-1.4914,-1.4908,-1.4879,-1.4877,-1.489,-1.4866,-1.4862,-1.4857,-1.4832,-1.4827,-1.484,-1.4839,-1.4807,-1.4804,-1.4801,-1.4799,-1.4787,-1.4786,-1.4785,-1.4772,-1.4772,-1.4772,0,0,0,0,0,0,-1.4915,-1.4912,-1.488,-1.4892,-1.4887,-1.4866,-1.486,-1.4856,-1.485,-1.4828,-1.4824,-1.4838,-1.4806,-1.4803,-1.4794,-1.4798,-1.4785,-1.4784,-1.4771,-1.4772,-1.4772,-1.4796,0,0,0,0,0,0,-1.4917,-1.4913,-1.4913,-1.4892,-1.4887,-1.4875,-1.486,-1.4856,-1.4849,-1.4847,-1.4825,-1.4821,-1.4806,-1.4796,-1.4793,-1.4796,-1.4783,-1.4771,-1.4771,-1.4772,-1.4794,-1.4797,-1.4799,0,0,0,0,0,-1.4918,-1.492,-1.4913,-1.491,-1.4887,-1.4875,-1.4872,-1.4856,-1.4849,-1.4849,-1.4834,-1.4822,-1.4798,-1.4796,-1.4792,-1.4794,-1.477,-1.4771,-1.4772,-1.4793,-1.4796,-1.4799,0,0,0,0,0,0,-1.494,-1.4917,-1.4909,-1.4904,-1.4892,-1.4871,-1.487,-1.4859,-1.4848,-1.4846,-1.4825,-1.482,-1.4814,-1.4803,-1.4801,-1.4793,-1.4783,-1.4783,-1.48,-1.4803,-1.4805,-1.4807,-1.4782,0,0,0,0,0,-1.4945,-1.4938,-1.4918,-1.4916,-1.491,-1.4891,-1.4886,-1.4874,-1.486,-1.4854,-1.4839,-1.4826,-1.4815,-1.4808,-1.4797,-1.4793,-1.4788,-1.4793,-1.4795,-1.4797,-1.4797,-1.4794,-1.4796,-1.4775,-1.4775,-1.4775,0,0,-1.4954,-1.494,-1.4937,-1.492,-1.4909,-1.4902,-1.4887,-1.488,-1.4874,-1.4853,-1.4844,-1.4833,-1.4816,-1.481,-1.4806,-1.4801,-1.4802,-1.4798,-1.48,-1.4799,-1.4795,-1.4797,-1.4799,-1.4775,-1.4775,-1.4775,0,0,-1.4967,-1.4956,-1.4953,-1.4943,-1.4927,-1.4915,-1.4914,-1.4895,-1.4887,-1.4878,-1.4862,-1.4855,-1.4837,-1.4826,-1.4817,-1.4827,-1.4815,-1.4824,-1.4835,-1.4833,-1.4834,-1.4836,-1.4839,-1.484,-1.4824,-1.4824,-1.4824,0,-1.498,-1.4969,-1.4953,-1.4947,-1.494,-1.4922,-1.4918,-1.4909,-1.489,-1.4885,-1.4879,-1.4857,-1.4844,-1.4835,-1.4838,-1.4832,-1.483,-1.4826,-1.4836,-1.4837,-1.4838,-1.4841,-1.4842,-1.4825,-1.4825,-1.4825,-1.4825,0,-1.4986,-1.4979,-1.4978,-1.4962,-1.4954,-1.495,-1.4932,-1.4927,-1.4916,-1.4904,-1.4896,-1.488,-1.4866,-1.4863,-1.4852,-1.4852,-1.4849,-1.484,-1.4829,-1.4841,-1.4844,-1.4845,-1.4827,-1.4827,-1.4826,-1.4826,0,0,-1.5011,-1.4986,-1.4986,-1.4979,-1.496,-1.4954,-1.4949,-1.4936,-1.4931,-1.4919,-1.4913,-1.4899,-1.4891,-1.4882,-1.4869,-1.4867,-1.4876,-1.4858,-1.4857,-1.4862,-1.4875,-1.4882,-1.4884,-1.4868,-1.4868,-1.4868,-1.4876,0,-1.5021,-1.5011,-1.4997,-1.4991,-1.4984,-1.4967,-1.4962,-1.495,-1.4939,-1.4931,-1.4918,-1.4908,-1.4898,-1.4892,-1.4889,-1.4875,-1.4878,-1.4874,-1.4862,-1.4861,-1.4866,-1.4885,-1.4892,-1.4901,-1.4877,-1.4877,-1.4877,0,-1.5031,-1.5021,-1.5015,-1.4998,-1.4994,-1.499,-1.4977,-1.497,-1.4956,-1.4948,-1.4938,-1.4925,-1.4918,-1.4909,-1.4898,-1.4896,-1.489,-1.4882,-1.4882,-1.488,-1.487,-1.4883,-1.4903,-1.4905,-1.4879,-1.4879,-1.4878,0,-1.505,-1.5035,-1.5029,-1.5023,-1.5003,-1.5,-1.4992,-1.4977,-1.497,-1.4959,-1.4954,-1.4942,-1.4935,-1.4925,-1.4909,-1.4904,-1.49,-1.4889,-1.4892,-1.4893,-1.4892,-1.4892,-1.4911,-1.4889,-1.4889,-1.4888,-1.4888,0,-1.5062,-1.5059,-1.5038,-1.5034,-1.5031,-1.5014,-1.501,-1.5,-1.4987,-1.4981,-1.4965,-1.4959,-1.4938,-1.493,-1.4917,-1.491,-1.4907,-1.49,-1.4897,-1.4901,-1.4902,-1.4897,-1.4896,-1.4889,-1.4889,-1.4889,-1.4889,0,-1.5083,-1.5068,-1.5061,-1.5043,-1.5038,-1.5036,-1.502,-1.5016,-1.5004,-1.4996,-1.4993,-1.4975,-1.4964,-1.4947,-1.4931,-1.4923,-1.4918,-1.4912,-1.4923,-1.4921,-1.4925,-1.4925,-1.4941,-1.4943,-1.4919,-1.492,-1.492,0,-1.5092,-1.5089,-1.5071,-1.5066,-1.5058,-1.505,-1.5044,-1.5027,-1.5021,-1.5005,-1.5002,-1.4991,-1.4981,-1.4965,-1.4949,-1.4937,-1.4931,-1.4937,-1.4929,-1.4934,-1.4931,-1.4931,-1.4931,-1.4939,-1.4939,-1.494,-1.494,0,-1.5109,-1.5102,-1.5093,-1.5083,-1.5076,-1.5066,-1.5055,-1.5052,-1.5033,-1.5027,-1.5016,-1.5009,-1.4993,-1.4982,-1.4968,-1.4958,-1.4945,-1.4943,-1.4943,-1.4948,-1.4954,-1.4951,-1.4928,-1.4943,-1.4942,-1.4942,-1.4942,-1.4942,-1.5123,-1.5121,-1.5108,-1.5099,-1.5089,-1.508,-1.5075,-1.5063,-1.5055,-1.5042,-1.5032,-1.5023,-1.5008,-1.4988,-1.4979,-1.497,-1.4965,-1.4965,-1.4965,-1.4965,-1.4967,-1.4956,-1.4968,-1.4968,-1.4967,-1.4967,-1.4967,0,-1.514,-1.5131,-1.5123,-1.5109,-1.5102,-1.5093,-1.5081,-1.5075,-1.5067,-1.5056,-1.5046,-1.5035,-1.5024,-1.5008,-1.4995,-1.4992,-1.4986,-1.4989,-1.4989,-1.4987,-1.4973,-1.4974,-1.4994,-1.4994,-1.4994,-1.4994,-1.4994,-1.4994,-1.5148,-1.5143,-1.5134,-1.5124,-1.5114,-1.5106,-1.51,-1.5091,-1.5081,-1.5069,-1.5061,-1.5051,-1.5037,-1.5023,-1.5013,-1.5008,-1.5004,-1.5009,-1.5003,-1.499,-1.4988,-1.4985,-1.4986,-1.5009,-1.5009,-1.5018,-1.5018,-1.5018]},{"header":{"parameterUnit":"m.s-1","parameterCategory":1,"la1":30.2991,"la2":30.254,"lo1":-89.0895,"lo2":-89.0444,"dy":0.0017,"dx":0.0017,"nx":28,"ny":28,"refTime":"2024-06-14T09:00:00:Z","depth":0,"parameterNumber":3,"parameterNumberName":"V-component_of_WINDS"},"data":[0,0,0,0,0,0,0,0,0,0,0,0,0,0,0,0,0,0,0,0,0,0,0,0,0,0,0,0,0,0,0,0,0,0,0,0,0,0,0,0,0,0,0,0,0,0,0,0,0,0,0,0,0,0,0,0,0,0,2.7752,2.7751,0,2.7693,2.7692,2.7692,2.7667,2.7667,2.7667,2.7667,2.76,2.7598,2.7596,0,0,0,0,0,0,0,0,0,0,0,0,0,2.7836,2.7835,2.7752,2.7751,2.775,2.7693,2.7692,2.7692,2.7667,2.7667,2.7667,2.7667,2.76,2.7598,2.7596,0,0,0,0,0,0,0,0,0,0,0,0,0,2.7791,2.7835,2.7752,2.7731,2.7729,2.7693,2.7692,2.7691,2.7667,2.7667,2.7667,2.7668,2.7601,2.7598,2.7595,2.7573,0,0,2.7586,2.7585,0,0,0,0,0,0,0,0,2.7793,2.7788,2.7735,2.7733,2.773,2.7688,2.7697,2.7652,2.7667,2.769,2.7667,2.7668,2.7628,2.7623,2.7611,2.757,2.7567,2.7586,2.7584,2.7583,2.7582,0,0,0,0,0,0,0,2.7797,2.779,2.7728,2.7734,2.7731,2.7723,2.7717,2.7689,2.7658,2.7688,2.7686,2.768,2.7627,2.7614,2.761,2.7566,2.7586,2.7584,2.7582,2.7581,2.7505,2.7505,0,0,0,0,0,0,2.7804,2.7793,2.773,2.7727,2.7763,2.7721,2.7714,2.7701,2.7659,2.7653,2.768,2.7679,2.7619,2.7613,2.7607,2.7579,2.7583,2.758,2.7579,2.7505,2.7505,2.7505,0,0,0,0,0,0,2.7806,2.7799,2.7732,2.7759,2.775,2.772,2.7705,2.77,2.7687,2.7653,2.7647,2.7673,2.7619,2.7611,2.7583,2.7577,2.7579,2.7577,2.7506,2.7505,2.7505,2.7523,0,0,0,0,0,0,2.7808,2.78,2.7792,2.7759,2.7749,2.7711,2.7704,2.7698,2.7683,2.7682,2.7645,2.7639,2.7619,2.7587,2.758,2.7573,2.7574,2.7506,2.7506,2.7505,2.7523,2.7524,2.7524,0,0,0,0,0,2.7812,2.7798,2.7792,2.7784,2.7739,2.7711,2.7704,2.7684,2.7683,2.7674,2.7653,2.764,2.7579,2.7585,2.7576,2.7568,2.7506,2.7506,2.7505,2.7523,2.7524,2.7524,0,0,0,0,0,0,2.7827,2.7793,2.7786,2.7762,2.774,2.7707,2.7695,2.7685,2.7661,2.766,2.7633,2.7625,2.7599,2.758,2.7587,2.7545,2.7541,2.7539,2.7558,2.7558,2.7559,2.7563,2.7572,0,0,0,0,0,2.7829,2.781,2.778,2.7761,2.7751,2.7726,2.7712,2.7699,2.7674,2.7663,2.7639,2.7613,2.7589,2.7572,2.7547,2.7521,2.7512,2.7511,2.7512,2.7512,2.751,2.7495,2.7494,2.7503,2.7503,2.7503,0,0,2.7829,2.7809,2.7798,2.7764,2.7746,2.7726,2.7717,2.7696,2.7681,2.7659,2.7632,2.7613,2.7583,2.7556,2.7542,2.7539,2.7506,2.7511,2.7512,2.751,2.7494,2.7494,2.7493,2.7502,2.7502,2.7502,0,0,2.7821,2.7804,2.7787,2.777,2.7743,2.7726,2.7722,2.7691,2.7679,2.7652,2.7636,2.7616,2.7574,2.7553,2.7537,2.7524,2.7511,2.7516,2.7518,2.7504,2.7504,2.7503,2.7498,2.7497,2.7515,2.7515,2.7515,0,2.7825,2.7797,2.7779,2.776,2.7745,2.7728,2.771,2.7693,2.7658,2.7648,2.7646,2.7594,2.7572,2.754,2.7538,2.7525,2.7519,2.752,2.7506,2.7505,2.7504,2.7499,2.7497,2.7516,2.7515,2.7515,2.7515,0,2.7803,2.7784,2.7773,2.7744,2.7728,2.7709,2.7687,2.7673,2.7661,2.7644,2.7617,2.7591,2.7561,2.7552,2.7539,2.7519,2.7518,2.7511,2.7507,2.7504,2.7499,2.7497,2.7517,2.7516,2.7516,2.7516,0,0,2.7801,2.7765,2.7761,2.7748,2.7718,2.7702,2.7682,2.7656,2.7645,2.7621,2.7604,2.757,2.7564,2.7546,2.7531,2.7518,2.751,2.7513,2.7512,2.7513,2.7486,2.7491,2.7489,2.7503,2.7502,2.7502,2.7489,0,2.7789,2.7756,2.774,2.7713,2.7695,2.768,2.7663,2.7642,2.7626,2.7607,2.7588,2.7565,2.7559,2.7548,2.7535,2.7514,2.7504,2.7515,2.7484,2.7483,2.7492,2.7487,2.7491,2.748,2.7487,2.7486,2.7486,0,2.777,2.7751,2.7723,2.7697,2.7689,2.7674,2.765,2.7632,2.7608,2.7597,2.7579,2.7564,2.7542,2.7541,2.7508,2.7516,2.7503,2.749,2.7489,2.7485,2.7484,2.7481,2.7476,2.7474,2.7483,2.7483,2.7483,0,2.7771,2.7738,2.7718,2.7707,2.7676,2.7667,2.7653,2.7629,2.7615,2.7593,2.7583,2.7558,2.7544,2.7524,2.7503,2.7504,2.7473,2.7469,2.7462,2.7462,2.7455,2.7455,2.7447,2.7447,2.7447,2.7447,2.7447,0,2.7759,2.7742,2.7718,2.7706,2.7687,2.7668,2.7649,2.7634,2.7614,2.7597,2.7581,2.7565,2.7539,2.7519,2.7502,2.7478,2.7471,2.7461,2.7456,2.7462,2.7463,2.7452,2.7452,2.7447,2.7447,2.7447,2.7447,0,2.7757,2.774,2.7717,2.7691,2.7684,2.7672,2.7648,2.7635,2.7619,2.7598,2.7592,2.7566,2.7542,2.752,2.7487,2.7476,2.7452,2.7446,2.7461,2.7458,2.7452,2.7453,2.7435,2.7432,2.7435,2.7435,2.7435,0,2.7749,2.7737,2.7711,2.77,2.7688,2.767,2.7656,2.7638,2.7624,2.7597,2.7586,2.7562,2.7542,2.7504,2.7481,2.7456,2.7449,2.7445,2.7445,2.7451,2.7449,2.745,2.7448,2.7445,2.7445,2.7445,2.7445,0,2.7739,2.7732,2.7714,2.7695,2.768,2.7662,2.7644,2.7636,2.7613,2.7598,2.7576,2.756,2.7529,2.7504,2.7477,2.746,2.7448,2.7446,2.7442,2.7447,2.7456,2.7451,2.7461,2.7445,2.7445,2.7445,2.7445,2.7445,2.7733,2.7722,2.7703,2.7684,2.767,2.7654,2.764,2.7625,2.7606,2.7581,2.7571,2.7548,2.7524,2.7487,2.7471,2.7451,2.7449,2.7444,2.7443,2.7442,2.7443,2.7461,2.7446,2.7446,2.7446,2.7446,2.7446,0,2.7721,2.7709,2.7693,2.767,2.7655,2.7649,2.7629,2.7616,2.7597,2.7578,2.7559,2.7533,2.751,2.7487,2.7462,2.7451,2.7445,2.7445,2.7445,2.7441,2.7447,2.7452,2.745,2.745,2.745,2.745,2.745,2.745,2.7714,2.7695,2.7686,2.7659,2.7646,2.7626,2.7615,2.76,2.7585,2.7558,2.754,2.7526,2.7505,2.7479,2.7457,2.7451,2.7442,2.7444,2.7435,2.7441,2.7441,2.744,2.7445,2.7442,2.7442,2.7431,2.7431,2.7431]}]]